This demonstration page uses our WeatherBlox Daily Observations layout. Learn more.

Left ArrowRight Arrow

44.89941, -97.11507

Hourly Observations for February 17, 2021

Temp ( °F °C ) Dew Point ( °F °C ) Humidity (%) Winds ( mph kmh ) Pressure ( in mb ) Visibility ( mi km ) Precip ( " mm )
12:53 am 00:53 Cloudy -2 -18.9 -12 -24.4 62 62 SSE 12 19 30.18 1022 10 16 0.00 0.00
1:40 am 01:40 Cloudy with Light Snow -2 -18.9 -9 -22.8 72 72 S 12 19 30.27 1025 3 4 0.00 0.00
1:53 am 01:53 Cloudy with Light Snow -2 -18.9 -8 -22.2 75 75 SSE 14 22 30.18 1022 2 3 0.00 0.00
2:06 am 02:06 Cloudy with Light Snow -2 -18.9 -8 -22.2 75 75 S 15 24 30.26 1025 3 4 0.00 0.00
2:22 am 02:22 Cloudy with Light Snow -2 -18.9 -8 -22.2 75 75 S 15 24 30.26 1025 3 5 0.00 0.00
2:53 am 02:53 Cloudy with Light Snow -2 -18.9 -7 -21.7 79 79 S 14 22 30.17 1022 5 8 0.00 0.00
3:16 am 03:16 Cloudy with Light Snow -2 -18.9 -7 -21.7 79 79 S 14 22 30.26 1025 2 3 0.00 0.00
3:26 am 03:26 Cloudy with Light Snow -2 -18.9 -7 -21.7 79 79 S 14 22 30.26 1025 5 8 0.00 0.00
3:53 am 03:53 Cloudy with Light Snow -2 -18.9 -7 -21.7 79 79 S 13 20 30.16 1022 4 6 0.00 0.00
4:09 am 04:09 Cloudy with Light Snow -2 -18.9 -7 -21.7 79 79 S 12 19 30.25 1024 3 4 0.00 0.00
4:19 am 04:19 Cloudy with Light Snow -2 -18.9 -7 -21.7 79 79 SSE 10 17 30.25 1024 3 5 0.00 0.00
4:53 am 04:53 Cloudy with Mist and Fog -2 -18.9 -6 -21.1 83 83 SSE 10 17 30.16 1022 6 10 0.00 0.00
5:53 am 05:53 Cloudy with Haze -1 -18.3 -6 -21.1 79 79 SSE 10 17 30.17 1022 6 10 0.00 0.00
6:53 am 06:53 Cloudy -1 -18.3 -6 -21.1 79 79 SSE 12 19 30.18 1022 8 13 0.00 0.00
7:53 am 07:53 Cloudy with Light Snow 0 -17.8 -5 -20.6 79 79 S 9 15 30.20 1023 6 10 0.00 0.00
8:20 am 08:20 Cloudy with Light Snow 0 -17.8 -4 -20 83 83 SSE 10 17 30.28 1025 3 4 0.00 0.00
8:33 am 08:33 Cloudy with Light Snow 0 -17.8 -4 -20 83 83 SSE 10 17 30.29 1026 2 2 0.00 0.00
8:48 am 08:48 Cloudy with Light Snow 0 -18 -4 -20 84 84 SSE 12 19 30.29 1026 1 2 0.00 0.00
8:53 am 08:53 Cloudy with Light Snow 0 -17.8 -4 -20 83 83 SSE 10 17 30.21 1023 1 2 0.00 0.00
9:07 am 09:07 Cloudy with Light Snow 1 -17.2 -4 -20 79 79 SSE 10 17 30.28 1025 2 2 0.00 0.00
9:53 am 09:53 Cloudy with Light Snow 1 -17.2 -4 -20 79 79 SSE 9 15 30.22 1023 2 3 0.00 0.00
10:21 am 10:21 Cloudy with Light Snow 2 -16.7 -3 -19.4 80 80 SSE 13 20 30.29 1026 2 3 0.00 0.00
10:38 am 10:38 Cloudy with Light Snow 2 -16.7 -3 -19.4 80 80 SSE 12 19 30.30 1026 2 3 0.00 0.00
10:50 am 10:50 Cloudy with Light Snow 1 -17 -2 -19 85 85 S 10 17 30.30 1026 2 3 0.00 0.00
10:53 am 10:53 Cloudy with Light Snow 2 -16.7 -3 -19.4 80 80 S 9 15 30.23 1024 2 3 0.00 0.00
11:53 am 11:53 Cloudy with Light Snow 4 -15.6 -1 -18.3 80 80 S 9 15 30.24 1024 3 4 0.00 0.00
12:27 pm 12:27 Cloudy with Light Snow 5 -15 -1 -18.3 76 76 S 8 13 30.30 1026 3 5 0.00 0.00
12:53 pm 12:53 Cloudy with Light Snow 5 -15 0 -17.8 79 79 S 6 9 30.23 1024 3 5 0.00 0.00
1:17 pm 13:17 Cloudy with Light Snow 6 -14.4 0 -17.8 76 76 S 6 9 30.28 1025 3 4 0.00 0.00
1:38 pm 13:38 Cloudy with Light Snow 6 -14.4 0 -17.8 76 76 S 6 9 30.28 1025 3 5 0.00 0.00
1:51 pm 13:51 Cloudy with Light Snow 7 -14 0 -18 72 72 S 5 7 30.28 1025 3 4 0.00 0.00
1:53 pm 13:53 Cloudy with Light Snow 6 -14.4 0 -17.8 76 76 S 5 7 30.23 1024 3 4 0.00 0.00
2:27 pm 14:27 Cloudy with Light Snow 6 -14.4 1 -17.2 79 79 SSW 5 7 30.28 1025 3 5 0.00 0.00
2:53 pm 14:53 Cloudy with Light Snow 7 -13.9 1 -17.2 76 76 S 3 6 30.23 1024 4 6 0.00 0.00
3:22 pm 15:22 Cloudy with Light Snow 7 -13.9 1 -17.2 76 76 SSW 5 7 30.30 1026 4 6 0.00 0.00
3:53 pm 15:53 Cloudy 7 -13.9 0 -17.8 73 73 S 5 7 30.25 1025 7 11 0.00 0.00
4:53 pm 16:53 Cloudy 7 -13.9 1 -17.2 76 76 SSW 3 6 30.27 1025 7 11 0.00 0.00
5:53 pm 17:53 Cloudy 7 -13.9 1 -17.2 76 76 Calm 30.28 1026 8 13 0.00 0.00
6:53 pm 18:53 Cloudy 7 -13.9 1 -17.2 76 76 Calm 30.32 1027 10 16 0.00 0.00
7:53 pm 19:53 Cloudy 7 -13.9 2 -16.7 80 80 Calm 30.33 1027 8 13 0.00 0.00
8:53 pm 20:53 Cloudy 6 -14.4 2 -16.7 83 83 Calm 30.34 1027 8 13 0.00 0.00
9:53 pm 21:53 Cloudy 4 -15.6 1 -17.2 88 88 Calm 30.36 1028 9 14 0.00 0.00
10:53 pm 22:53 Cloudy 4 -15.6 1 -17.2 88 88 Calm 30.37 1028 8 13 0.00 0.00
11:53 pm 23:53 Partly Cloudy with Mist and Fog 1 -17.2 -2 -18.9 87 87 Calm 30.36 1028 6 10 0.00 0.00

Powered by AerisWeather